Location: Little Cypress
(30.1590°N, 93.7750°W)
Time: 19:57:29
(UTC-05:00)

Daily predictions for brighter satellites

Satellite Brightness Start Highest point End
(mag) Time Altitude Azimuth Time Altitude Azimuth Time Altitude Azimuth
CENTAUR R/B 3.9 20:02:31 10° SW 20:08:05 44° NW 20:14:19 10° NNE
Cosmos 1470 Rocket 4.3 20:12:48 10° NNW 20:17:02 57° W 20:21:15 10° S
Resurs 1-3 4.4 20:15:35 10° SE 20:19:28 32° ENE 20:23:21 10° N
Cosmos 2360 4.2 20:15:18 10° SSW 20:21:00 79° ESE 20:26:44 10° NNE
Cosmos 1151 Rocket 4.4 20:17:17 10° SSW 20:21:25 43° W 20:25:33 10° N
Atlas Centaur 2 3.1 20:16:50 10° SW 20:23:00 46° SSE 20:30:30 10° E
Cosmos 1869 Rocket 4.3 20:20:46 10° NNE 20:24:51 34° E 20:28:54 10° SE
Molniya-1 3.7 20:26:16 10° SW 20:27:47 38° WNW 20:29:23 10° NNE
SL-8 R/B 3.9 20:25:03 10° NW 20:29:48 58° NE 20:33:57 13° ESE
Cosmos 1455 2.1 20:30:07 10° S 20:33:55 77° E 20:37:42 10° N
Helios 1A 4.2 20:36:34 15° ESE 20:39:07 25° ENE 20:42:36 10° NNE
DELTA 2 R/B (1) 3.9 20:39:51 10° WNW 20:45:24 59° NNE 20:49:34 18° E
Cosmos 1869 3.3 20:43:03 10° S 20:46:53 54° E 20:50:44 10° NNE
CZ-3B DEB 0.2 20:43:54 10° NW 20:47:43 85° ENE 20:48:45 29° SE
Spot 2 Rocket 3.4 20:43:21 10° SSE 20:48:27 78° ENE 20:53:33 10° N
Resurs 01 Rocket 1.6 20:46:01 10° SSE 20:50:28 88° WSW 20:54:56 10° NNW
OAO 3 Rocket 3.9 20:47:20 10° W 20:52:06 52° N 20:56:38 12° ENE
CZ-4B DEB 4.2 20:54:21 20° ENE 20:54:21 20° ENE 20:56:29 10° NNE
Cosmos 1900 4.4 20:49:08 10° NNW 20:54:14 67° ENE 20:57:51 19° SE
Cosmos 1892 3.3 20:53:56 10° NNW 20:57:39 57° W 21:01:23 10° S
GRACE-1 3.9 20:55:23 10° N 20:58:07 74° W 21:00:31 12° S
GRACE-2 3.9 20:55:46 10° N 20:58:30 74° W 21:00:50 13° S
Cosmos 2297 Rocket 4.2 20:55:06 10° NW 20:59:43 26° WSW 21:04:19 10° SSW
FALCON 9 R/B 1.7 20:57:17 10° WNW 20:59:48 32° N 21:00:47 21° NE
Cosmos 1400 Rocket 3.7 20:56:44 10° NNW 21:00:30 48° W 21:04:19 10° S
H-2A R/B 3.9 20:57:50 10° S 21:01:35 45° W 21:05:20 10° NNW
Meteor 1-29 2.9 21:00:56 10° NNE 21:04:22 59° E 21:06:41 19° S
Cosmos 2142 Rocket 4.4 20:59:18 10° S 21:05:25 82° E 21:11:34 10° N
Cosmos 2322 Rocket 2.1 21:00:58 10° SSW 21:06:34 85° ESE 21:12:11 10° NNE
Cosmos 2263 Rocket 3.6 21:03:29 10° NNE 21:07:22 19° ENE 21:08:26 18° ENE
Envisat 3.2 21:05:47 25° SE 21:08:25 49° ENE 21:13:17 10° N
Cosmos 1933 3.9 21:11:29 35° E 21:11:30 35° E 21:15:12 10° NNE
Cosmos 1315 Rocket 3.0 21:10:12 10° NNW 21:14:14 69° W 21:17:08 18° S
Cosmos 2360 Rocket 2.7 21:15:49 31° SE 21:17:03 35° ESE 21:22:07 10° NE
OTV 4 1.2 21:17:44 10° WNW 21:20:12 40° SW 21:20:12 40° SW
Cosmos 2322 4.3 21:25:27 34° E 21:25:27 34° E 21:30:01 10° NE
USA 234 3.8 21:22:54 28° E 21:25:51 45° NE 21:31:59 10° NNW
Cosmos 1825 2.0 21:23:25 10° N 21:27:12 67° E 21:27:16 67° E
CZ-3 Stage 3 4.0 20:59:56 10° WNW 21:27:29 43° SW 21:31:41 22° SSE
SEDSat Delta rocket 3.5 21:22:25 10° W 21:27:46 89° N 21:30:34 33° E
Cosmos 2026 Rocket 3.8 21:24:39 10° N 21:30:53 81° E 21:34:22 28° S
SL-16 R/B 2.9 21:28:48 10° SW 21:34:19 54° WNW 21:39:52 10° N
USA 186 3.6 21:34:07 20° WSW 21:34:35 21° W 21:36:46 10° NW
GPS 2-04 Rocket1 4.2 21:33:15 10° W 21:36:03 24° SW 21:36:03 24° SW
ATLAS CENTAUR R/B 3.8 21:33:12 10° WNW 21:36:44 37° SW 21:42:08 18° S
Cosmos 1862 3.6 21:36:56 10° N 21:40:18 55° NNE 21:40:18 55° NNE
ERS-1 Rocket 3.2 21:42:09 48° ENE 21:42:09 48° ENE 21:46:54 10° N
SAR-Lupe-4 4.5 21:42:20 40° SW 21:42:52 43° W 21:46:19 10° NNW
Helios 1B rocket 4.3 21:39:30 10° N 21:43:06 31° WNW 21:46:43 10° SW
Cosmos 1939 Rocket 2.9 21:44:20 72° SW 21:44:34 75° WSW 21:48:36 10° NNW
Lacrosse 4 Rocket 1.8 21:41:18 10° NNW 21:45:08 55° NE 21:45:08 55° NE
Skynet4D Del rocket 4.4 21:37:43 10° W 21:45:53 70° S 21:48:16 46° ESE
ATLAS 5 CENTAUR R/B 3.8 21:42:20 10° N 21:47:14 24° NE 21:47:45 24° ENE
ERBS 3.7 21:43:50 10° NNW 21:46:04 35° N 21:46:04 35° N
Cosmos 1733 Rocket 3.0 21:47:00 10° N 21:51:22 84° WNW 21:51:22 84° WNW
Milstar 3 2.7 21:44:03 10° W 21:51:38 70° S 21:53:09 53° SE
Cosmos 1862 Rocket 4.1 21:50:04 35° SW 21:51:44 57° W 21:56:08 10° N
ARGOS 4.3 21:52:58 28° NE 21:52:58 28° NE 21:56:32 10° N
Sakura Rocket 4.2 21:48:34 10° WSW 21:50:46 30° SW 21:50:46 30° SW
SeaSat 1 4.0 21:57:02 23° NE 21:57:02 23° NE 21:59:57 10° N
Cosmos 1655 Rocket 4.1 21:51:41 10° N 21:58:03 75° W 22:00:35 39° S
Meteor 1-26 Rocket 4.1 21:58:32 71° E 21:58:32 71° E 22:04:14 10° NNE
Cosmos 1408 4.2 21:58:48 10° NNW 22:01:58 32° W 22:01:58 32° W
USA 229 DEB 3.5 22:00:48 10° SSW 22:07:36 82° ESE 22:14:29 10° NNE
USA 229 3.5 22:00:54 10° SSW 22:07:41 81° ESE 22:14:35 10° NNE
Atlas Centaur 2 2.8 22:05:07 10° WSW 22:12:29 83° S 22:14:11 60° E
Cosmos 2266 Rocket 4.2 22:12:43 10° N 22:18:12 60° NE 22:18:12 60° NE
MOS 1-B Rocket 4.4 22:22:53 49° NE 22:22:53 49° NE 22:27:24 10° N
H-2A R/B 3.8 22:33:27 23° NNE 22:33:27 23° NNE 22:35:28 10° N
SPOT 5 4.4 22:43:25 32° NNW 22:43:25 32° NNW 22:45:56 10° NNW
COSMOS 2428 4.4 22:52:07 25° NNE 22:52:07 25° NNE 22:54:26 10° NNE
H-2A R/B 3.7 14:52:44 10° SW 22:50:15 82° S 22:51:40 70° ESE
Cosmos 2263 Rocket 3.3 22:46:09 10° NW 22:50:08 38° WNW 22:50:08 38° WNW
Cosmos 2360 Rocket 4.2 22:57:15 13° WSW 23:01:01 24° WNW 23:05:35 10° N
USA 234 4.3 23:10:15 36° W 23:10:15 36° W 23:14:52 10° WNW
ATLAS 5 CENTAUR R/B 4.0 23:26:07 10° NW 23:29:19 31° NW 23:29:19 31° NW
